Location: *
(37.9500°N, 27.3666°E)
Time: 13:57:21
(UTC+00:00)

Cosmos 1932 - Pass Details

Date: 24 October 2021
Orbit: 943 x 987 km, 65.0° (Epoch: 02 December)

Event Time Altitude Azimuth Distance (km) Brightness Sun altitude
Rises 17:42:27 0° 328° (NNW) 3,618 8.0 -28.5°
Reaches altitude 10° 17:44:59 10° 328° (NNW) 2,674 7.2 -29.0°
Maximum altitude 17:51:14 82° 242° (WSW) 967 4.4 -30.2°
Enters shadow 17:51:17 82° 233° (SW) 967 4.4 -30.2°
